Simultaneous Nadir Overpasses (SNOs) Predictions

Prediction of SNOs between METOP-A and TERRA Satellite Orbit:

Table of predicted SNOs for the next 14.0 days since TLE Epoch: 5/5/2017
Index Date (METOP-A) Time (METOP-A) Lat,Lon (METOP-A) SZA (METOP-A ) Date (TERRA) Time (TERRA) Lat,Lon (TERRA) SZA (TERRA ) Distance(km) Time Diff (sec)
1 05/05/2017 18:49:40 81.34, -54.58 67.91 05/05/2017 18:50:06 81.34, -54.43 67.94 2.56 26
2 05/05/2017 19:40:20 -81.34, 113.14 112.06 05/05/2017 19:39:33 -81.34, 113.12 112.09 0.37 47
3 05/08/2017 14:24:01 81.34, 12.01 67.17 05/08/2017 14:24:21 81.34, 12.01 67.18 0.51 20
4 05/08/2017 15:14:41 -81.34, 179.73 112.80 05/08/2017 15:13:48 -81.34, 179.59 112.85 2.50 53
5 05/11/2017 09:58:22 81.34, 78.19 66.41 05/11/2017 09:58:35 81.34, 78.30 66.43 1.91 13
6 05/11/2017 10:49:02 -81.34,-114.08 113.56 05/11/2017 10:48:02 -81.33,-114.10 113.59 0.84 60
7 05/14/2017 05:32:43 81.34, 144.75 65.74 05/14/2017 05:32:49 81.34, 144.83 65.75 1.40 6
8 05/14/2017 06:23:23 -81.34, -47.52 114.23 05/14/2017 06:22:16 -81.34, -47.55 114.27 0.67 67
9 05/17/2017 00:16:25 -81.33, 43.36 114.97 05/17/2017 00:17:37 -81.34, 43.55 114.91 3.16 72
10 05/17/2017 01:07:04 81.34,-148.71 65.10 05/17/2017 01:07:03 81.34,-148.79 65.09 1.42 1




NCC Satellite Simultaneous Nadir Overpasses (SNOs) Prediction Service
